This is the latest recevied weather packets stored in our database for station/object KO4LCK. If no packets are shown the sender has not sent any weather packets the latest 10 day(s).
| Time | Temp. | Humidity | Pressure | Rain* | Wind** | Luminosity | Snow |
|---|---|---|---|---|---|---|---|
| 1788216699 | 32.78° C | 49% | 1019.1 hPa | 0 mm | - | 44 W/m² | - |
| 1788216394 | 32.78° C | 48% | 1019.2 hPa | 0 mm | - | 46 W/m² | - |
| 1788216090 | 33.33° C | 48% | 1019.3 hPa | 0 mm | - | 51 W/m² | - |
| 1788215785 | 35° C | 48% | 1019.4 hPa | 0 mm | - | 71 W/m² | - |
| 1788215481 | 34.44° C | 48% | 1019.2 hPa | 0 mm | - | 134 W/m² | - |
| 1788215182 | 35° C | 45% | 1019.2 hPa | 0 mm | - | 158 W/m² | - |
| 1788214877 | 35° C | 46% | 1019.4 hPa | 0 mm | - | 168 W/m² | - |
| 1788214573 | 34.44° C | 46% | 1019.4 hPa | 0 mm | - | 172 W/m² | - |
| 1788214274 | 34.44° C | 47% | 1019.3 hPa | 0 mm | - | 190 W/m² | - |
| 1788213968 | 34.44° C | 45% | 1019.5 hPa | 0 mm | - | 201 W/m² | - |
| 1788213664 | 35° C | 44% | 1019.3 hPa | 0 mm | - | 84 W/m² | - |
| 1788213359 | 34.44° C | 45% | 1019.4 hPa | 0 mm | - | 251 W/m² | - |
| 1788213055 | 34.44° C | 45% | 1019.4 hPa | 0 mm | - | 252 W/m² | - |
| 1788212752 | 34.44° C | 46% | 1019.5 hPa | 0 mm | - | 301 W/m² | - |
| 1788212448 | 35.56° C | 44% | 1019.6 hPa | 0 mm | - | 340 W/m² | - |
| 1788212145 | 36.67° C | 42% | 1019.5 hPa | 0 mm | - | 350 W/m² | - |
| 1788211839 | 36.11° C | 41% | 1019.5 hPa | 0 mm | - | 386 W/m² | - |
| 1788211536 | 35.56° C | 43% | 1019.5 hPa | 0 mm | - | 402 W/m² | - |
| 1788211231 | 35° C | 45% | 1019.7 hPa | 0 mm | - | 400 W/m² | - |
| 1788210931 | 34.44° C | 44% | 1019.9 hPa | 0 mm | - | 405 W/m² | - |
| 1788210630 | 34.44° C | 46% | 1019.8 hPa | 0 mm | - | 405 W/m² | - |
| 1788210326 | 34.44° C | 45% | 1019.8 hPa | 0 mm | - | 423 W/m² | - |
| 1788210022 | 35.56° C | 44% | 1019.9 hPa | 0 mm | - | 459 W/m² | - |
| 1788209716 | 35.56° C | 44% | 1019.9 hPa | 0 mm | - | 459 W/m² | - |
| 1788209412 | 35.56° C | 44% | 1019.7 hPa | 0 mm | - | 481 W/m² | - |
* Rain latest hour (hover to see other rain measurements)
** Current wind speed in m/s (hover to see current wind gust speed)